Temp
-15 -16 -16 -17 -17 -17 -18 -18 -18 -18 -18 -18 -18 -18 -19 -19 -19 -19 -19 -20 -20 -20 -21 -21 -21 -22 -22 -22 -23 -23 -23 -23 -23 -23 -24 -24 -24 -24 -25 -25 -25 -25 -24 -24 -25 -25 -25 -25 -25 -24 -24 -24 -24 -24 -24 -23 -23 -23 -23 -23 -23 -22 -22
-15 -16 -17 -17 -17 -18 -18 -18 -18 -19 -19 -19 -19 -19 -19 -19 -20 -20 -20 -20 -20 -21 -21 -21 -22 -22 -23 -23 -23 -23 -23 -24 -24 -24 -24 -24 -25 -25 -25 -25 -26 -26 -25 -25 -25 -26 -26 -25 -25 -25 -24 -24 -24 -24 -24 -23 -23 -23 -23 -23 -22 -22 -22
-16 -16 -17 -17 -17 -18 -18 -18 -19 -19 -19 -19 -19 -19 -20 -20 -20 -20 -20 -21 -21 -21 -22 -22 -22 -23 -23 -23 -23 -23 -24 -24 -24 -25 -25 -25 -25 -26 -26 -26 -26 -26 -26 -26 -25 -26 -26 -25 -25 -25 -25 -24 -24 -24 -24 -23 -23 -23 -23 -23 -23 -22 -22
-16 -17 -17 -17 -18 -18 -19 -19 -19 -19 -19 -19 -19 -20 -20 -20 -20 -21 -21 -21 -21 -22 -22 -23 -23 -23 -23 -24 -24 -24 -24 -25 -25 -25 -26 -26 -26 -26 -26 -26 -27 -27 -27 -27 -26 -26 -26 -26 -25 -25 -25 -25 -24 -24 -24 -24 -23 -23 -23 -23 -23 -23 -22
-16 -17 -17 -18 -18 -19 -19 -19 -19 -19 -19 -19 -20 -20 -20 -21 -21 -21 -21 -21 -22 -22 -23 -23 -23 -23 -24 -24 -24 -24 -25 -25 -26 -26 -26 -26 -26 -27 -27 -27 -27 -27 -27 -27 -27 -26 -26 -26 -26 -26 -25 -25 -25 -24 -24 -24 -24 -23 -23 -23 -23 -23 -23
-17 -17 -18 -18 -19 -19 -19 -19 -19 -19 -19 -20 -20 -21 -21 -21 -21 -21 -22 -22 -22 -23 -23 -23 -24 -24 -24 -24 -24 -25 -25 -26 -26 -26 -27 -27 -27 -27 -27 -27 -27 -27 -28 -28 -27 -27 -26 -26 -26 -26 -25 -25 -25 -25 -24 -24 -24 -24 -24 -23 -23 -24 -24
-17 -18 -18 -19 -19 -19 -19 -19 -19 -19 -20 -20 -21 -21 -21 -21 -21 -22 -22 -22 -23 -23 -23 -24 -24 -24 -24 -25 -25 -25 -26 -26 -26 -27 -27 -27 -27 -27 -28 -28 -28 -28 -28 -28 -28 -27 -27 -26 -26 -26 -26 -25 -25 -25 -25 -25 -24 -24 -24 -24 -24 -24 -24
-18 -18 -18 -19 -19 -19 -19 -19 -20 -20 -20 -21 -21 -21 -21 -21 -22 -22 -22 -23 -23 -23 -24 -24 -24 -25 -25 -25 -25 -26 -26 -26 -27 -27 -27 -27 -28 -28 -28 -28 -28 -28 -28 -28 -28 -27 -27 -27 -26 -26 -26 -26 -26 -26 -25 -25 -25 -25 -25 -25 -25 -24 -24
-18 -18 -19 -19 -19 -19 -19 -20 -20 -20 -21 -21 -21 -21 -22 -22 -22 -22 -23 -23 -23 -24 -24 -24 -25 -25 -25 -25 -26 -26 -27 -27 -27 -27 -27 -28 -28 -28 -28 -28 -28 -28 -28 -28 -28 -27 -27 -27 -27 -26 -26 -26 -26 -26 -26 -26 -26 -25 -25 -25 -25 -25 -24
-18 -19 -19 -19 -19 -19 -20 -20 -20 -21 -21 -22 -22 -22 -22 -22 -23 -23 -23 -23 -24 -24 -24 -25 -25 -25 -25 -26 -26 -26 -27 -27 -27 -28 -28 -28 -28 -28 -28 -28 -28 -28 -28 -28 -28 -28 -27 -27 -27 -27 -27 -27 -26 -26 -26 -26 -26 -26 -26 -26 -25 -25 -25
-19 -19 -19 -20 -20 -20 -20 -20 -21 -21 -22 -22 -22 -22 -22 -23 -23 -23 -24 -24 -24 -25 -25 -25 -25 -25 -26 -26 -26 -27 -27 -28 -28 -28 -28 -28 -28 -29 -29 -29 -29 -29 -29 -28 -28 -28 -28 -27 -27 -27 -27 -27 -26 -26 -26 -26 -26 -26 -26 -26 -26 -26 -26
-19 -19 -19 -20 -20 -20 -20 -21 -21 -22 -22 -22 -22 -23 -23 -23 -23 -23 -24 -24 -25 -25 -25 -25 -25 -26 -26 -26 -26 -27 -27 -28 -28 -28 -28 -28 -28 -29 -29 -29 -29 -29 -29 -29 -28 -28 -28 -27 -27 -27 -27 -27 -27 -27 -27 -27 -27 -27 -27 -27 -27 -26 -26
-19 -19 -20 -20 -20 -20 -21 -21 -21 -22 -22 -22 -23 -23 -24 -24 -24 -24 -24 -25 -25 -25 -25 -26 -26 -26 -26 -26 -26 -27 -27 -28 -28 -28 -28 -28 -28 -28 -28 -29 -29 -29 -29 -29 -29 -28 -28 -28 -28 -28 -27 -27 -28 -28 -28 -28 -28 -28 -28 -27 -27 -27 -27
-19 -19 -20 -20 -20 -21 -21 -21 -22 -22 -22 -23 -23 -24 -24 -24 -25 -25 -25 -25 -26 -26 -26 -26 -26 -26 -26 -26 -26 -27 -27 -28 -28 -28 -28 -28 -28 -28 -28 -29 -29 -29 -29 -29 -29 -28 -28 -28 -28 -28 -27 -27 -28 -28 -28 -28 -28 -28 -28 -27 -27 -27 -27
-19 -20 -20 -20 -21 -21 -21 -21 -22 -22 -23 -23 -24 -24 -24 -25 -25 -25 -26 -26 -26 -26 -26 -26 -26 -26 -27 -27 -27 -27 -27 -28 -28 -28 -28 -28 -28 -28 -29 -29 -29 -29 -29 -29 -29 -29 -28 -28 -27 -27 -27 -27 -27 -27 -28 -28 -28 -28 -28 -27 -27 -26 -26
-20 -20 -20 -21 -21 -21 -21 -22 -22 -23 -23 -24 -24 -24 -25 -25 -25 -26 -26 -26 -26 -26 -27 -27 -27 -27 -27 -27 -27 -28 -28 -28 -28 -28 -28 -28 -28 -28 -29 -29 -29 -29 -29 -29 -29 -29 -29 -29 -28 -28 -28 -28 -28 -28 -28 -28 -28 -28 -28 -27 -27 -27 -27
-20 -20 -21 -21 -21 -21 -22 -22 -23 -23 -24 -24 -24 -25 -25 -25 -26 -26 -26 -26 -27 -27 -27 -27 -27 -27 -27 -27 -28 -28 -28 -29 -29 -28 -28 -28 -28 -29 -29 -29 -29 -29 -29 -29 -29 -29 -29 -29 -29 -28 -28 -28 -29 -29 -29 -29 -28 -28 -28 -28 -28 -28 -28
-20 -21 -21 -21 -22 -22 -22 -22 -23 -24 -24 -24 -25 -25 -26 -26 -26 -26 -26 -27 -27 -27 -27 -27 -27 -27 -27 -28 -28 -28 -29 -29 -29 -29 -29 -28 -28 -28 -28 -29 -29 -29 -29 -29 -29 -29 -29 -29 -28 -28 -28 -28 -29 -29 -29 -30 -29 -29 -29 -29 -29 -29 -29
-21 -21 -21 -22 -22 -22 -23 -23 -24 -24 -25 -25 -25 -26 -26 -26 -26 -27 -27 -27 -27 -27 -27 -27 -27 -27 -27 -28 -28 -28 -28 -29 -29 -29 -29 -29 -29 -29 -28 -29 -29 -29 -29 -29 -29 -29 -29 -28 -28 -28 -28 -28 -29 -29 -29 -30 -30 -30 -30 -30 -30 -30 -30
-21 -21 -22 -22 -22 -23 -23 -23 -24 -25 -25 -25 -26 -26 -26 -27 -27 -27 -27 -27 -27 -27 -27 -27 -27 -27 -27 -28 -28 -28 -28 -29 -29 -29 -29 -29 -29 -29 -29 -29 -29 -29 -29 -29 -29 -29 -29 -28 -29 -29 -29 -29 -29 -29 -29 -30 -30 -30 -31 -31 -31 -31 -31
-21 -22 -22 -22 -23 -23 -23 -24 -24 -25 -25 -26 -26 -26 -27 -27 -27 -27 -27 -27 -27 -27 -27 -27 -27 -27 -27 -28 -28 -29 -29 -29 -29 -30 -30 -29 -29 -29 -30 -30 -30 -29 -29 -28 -28 -28 -28 -29 -29 -29 -29 -29 -29 -29 -29 -30 -30 -30 -31 -31 -31 -31 -31
-22 -22 -22 -23 -23 -23 -24 -24 -25 -25 -26 -26 -26 -26 -27 -27 -27 -28 -28 -28 -27 -27 -27 -27 -27 -27 -28 -28 -29 -29 -29 -29 -29 -30 -30 -30 -30 -31 -31 -31 -30 -29 -29 -29 -29 -29 -29 -29 -29 -29 -29 -29 -29 -29 -29 -30 -30 -30 -30 -30 -30 -31 -31
-22 -22 -22 -23 -23 -24 -24 -25 -25 -26 -26 -26 -26 -27 -27 -27 -28 -28 -28 -28 -27 -27 -27 -27 -27 -28 -28 -28 -29 -29 -29 -29 -29 -30 -30 -30 -31 -31 -31 -30 -30 -30 -30 -30 -30 -29 -29 -28 -28 -28 -28 -28 -28 -28 -28 -29 -29 -29 -29 -29 -30 -30 -30
-22 -23 -23 -23 -24 -24 -25 -25 -26 -26 -26 -26 -27 -27 -27 -28 -28 -28 -28 -28 -28 -28 -28 -28 -28 -28 -28 -28 -29 -29 -29 -29 -29 -29 -29 -30 -30 -30 -30 -30 -31 -31 -31 -31 -30 -30 -29 -29 -28 -28 -28 -28 -28 -28 -28 -28 -28 -29 -29 -29 -29 -29 -29
-23 -23 -23 -24 -24 -25 -25 -26 -26 -26 -26 -27 -27 -27 -28 -28 -28 -28 -28 -28 -28 -28 -28 -28 -28 -28 -28 -28 -29 -29 -29 -29 -29 -29 -30 -30 -30 -30 -30 -31 -31 -31 -31 -31 -30 -30 -30 -29 -29 -29 -29 -29 -29 -28 -28 -28 -28 -29 -29 -29 -29 -29 -29
-23 -23 -24 -24 -25 -25 -25 -26 -26 -26 -27 -27 -27 -27 -28 -28 -28 -28 -28 -28 -28 -28 -28 -28 -28 -28 -28 -29 -29 -29 -29 -29 -29 -29 -30 -30 -30 -30 -30 -31 -31 -31 -31 -31 -31 -30 -30 -30 -30 -30 -30 -29 -29 -29 -29 -29 -29 -29 -29 -29 -29 -29 -29
-24 -24 -24 -25 -25 -25 -26 -26 -26 -27 -27 -27 -27 -27 -28 -28 -28 -28 -28 -28 -28 -28 -28 -28 -28 -29 -29 -29 -29 -29 -29 -29 -30 -30 -30 -30 -30 -30 -31 -31 -31 -31 -31 -31 -31 -31 -30 -30 -30 -30 -30 -30 -29 -29 -29 -29 -29 -29 -29 -29 -29 -29 -29
-24 -24 -25 -25 -25 -26 -26 -26 -27 -27 -27 -27 -27 -28 -28 -28 -28 -28 -28 -28 -28 -28 -28 -28 -28 -28 -29 -29 -29 -29 -30 -30 -30 -30 -30 -30 -30 -30 -30 -31 -31 -31 -31 -31 -31 -31 -31 -31 -30 -30 -30 -30 -30 -29 -29 -29 -29 -29 -29 -29 -30 -29 -29
-25 -25 -25 -25 -26 -26 -26 -26 -27 -27 -27 -27 -27 -28 -28 -28 -28 -28 -28 -28 -29 -29 -29 -28 -28 -28 -29 -29 -30 -30 -30 -30 -30 -30 -30 -30 -30 -30 -30 -30 -30 -31 -31 -31 -31 -31 -31 -31 -31 -31 -31 -31 -30 -30 -30 -30 -30 -30 -30 -30 -30 -30 -30
-25 -25 -26 -26 -26 -26 -27 -27 -27 -27 -28 -28 -28 -28 -28 -28 -28 -28 -28 -28 -28 -29 -29 -28 -28 -29 -29 -29 -30 -30 -30 -30 -30 -30 -30 -30 -30 -30 -30 -30 -30 -30 -30 -31 -31 -31 -31 -31 -31 -31 -31 -31 -31 -30 -30 -30 -30 -30 -30 -30 -30 -30 -30
-25 -26 -26 -26 -26 -27 -27 -27 -27 -27 -27 -28 -28 -28 -28 -28 -28 -28 -29 -29 -29 -28 -28 -28 -28 -29 -29 -29 -29 -29 -30 -30 -30 -30 -30 -30 -30 -30 -30 -30 -30 -30 -30 -30 -30 -30 -30 -31 -31 -31 -31 -31 -31 -31 -31 -30 -30 -30 -30 -30 -30 -30 -30
-26 -26 -27 -27 -27 -27 -27 -27 -27 -27 -27 -27 -28 -28 -28 -28 -28 -29 -29 -29 -29 -29 -29 -28 -29 -29 -29 -29 -29 -29 -30 -30 -30 -30 -30 -30 -30 -30 -30 -30 -30 -30 -30 -30 -30 -30 -30 -30 -31 -31 -31 -31 -31 -31 -31 -30 -30 -30 -30 -30 -30 -30 -30
-26 -27 -27 -27 -27 -28 -28 -28 -28 -28 -28 -28 -28 -28 -28 -29 -29 -29 -29 -29 -30 -29 -29 -29 -29 -29 -29 -29 -29 -29 -30 -30 -30 -30 -30 -30 -30 -30 -30 -30 -30 -30 -30 -30 -30 -30 -30 -30 -30 -31 -31 -31 -31 -30 -30 -30 -30 -30 -30 -30 -30 -30 -30
-27 -27 -27 -27 -27 -28 -28 -28 -28 -28 -28 -28 -28 -28 -29 -29 -29 -29 -29 -29 -30 -30 -30 -30 -30 -30 -30 -30 -30 -30 -30 -30 -30 -30 -30 -30 -30 -30 -30 -30 -30 -30 -30 -30 -30 -30 -30 -30 -30 -31 -31 -31 -30 -30 -30 -30 -30 -30 -30 -30 -30 -30 -30
-27 -27 -28 -28 -28 -28 -28 -28 -28 -28 -28 -28 -29 -29 -29 -29 -29 -29 -29 -30 -30 -30 -30 -30 -30 -30 -30 -30 -30 -30 -30 -30 -30 -30 -30 -30 -30 -30 -30 -30 -30 -30 -30 -30 -30 -30 -30 -31 -31 -31 -31 -31 -31 -30 -30 -30 -30 -30 -30 -30 -30 -31 -31
-26 -27 -27 -28 -28 -28 -28 -28 -28 -28 -28 -29 -29 -29 -30 -29 -29 -30 -30 -30 -30 -30 -30 -30 -30 -30 -30 -30 -30 -30 -30 -30 -30 -30 -30 -30 -30 -30 -30 -30 -30 -30 -30 -30 -30 -30 -31 -31 -31 -31 -31 -31 -31 -30 -30 -30 -30 -30 -30 -30 -31 -31 -31
Height
2955 2953 2950 2948 2946 2944 2942 2940 2938 2936 2934 2931 2929 2928 2925 2923 2920 2917 2915 2912 2910 2908 2905 2903 2901 2899 2898 2895 2893 2890 2888 2886 2884 2882 2880 2878 2876 2874 2872 2869 2865 2861 2862 2863 2860 2858 2862 2864 2862 2860 2860 2861 2861 2861 2862 2862 2863 2863 2864 2865 2866 2866 2867
2948 2946 2943 2941 2938 2937 2935 2933 2931 2929 2926 2924 2923 2921 2918 2915 2913 2910 2908 2905 2903 2901 2898 2896 2894 2892 2891 2888 2885 2884 2882 2880 2878 2875 2873 2872 2869 2867 2865 2862 2859 2856 2854 2854 2853 2853 2856 2857 2855 2853 2854 2855 2855 2855 2855 2856 2857 2857 2858 2858 2859 2860 2860
2941 2939 2936 2934 2931 2930 2928 2926 2924 2922 2919 2917 2916 2914 2911 2908 2905 2903 2901 2898 2896 2894 2891 2888 2887 2885 2884 2881 2878 2877 2876 2873 2872 2869 2866 2865 2862 2860 2858 2856 2853 2850 2848 2846 2846 2847 2850 2851 2849 2847 2848 2849 2849 2849 2849 2850 2851 2851 2851 2852 2853 2853 2854
2934 2931 2929 2926 2925 2923 2921 2919 2917 2914 2912 2911 2909 2906 2904 2901 2898 2896 2894 2892 2889 2887 2884 2881 2880 2878 2877 2874 2872 2870 2869 2867 2865 2862 2860 2858 2856 2853 2852 2850 2847 2844 2842 2840 2839 2841 2844 2845 2842 2840 2842 2843 2843 2843 2843 2843 2844 2845 2845 2846 2846 2846 2847
2926 2924 2921 2920 2918 2916 2914 2912 2910 2907 2906 2904 2902 2899 2896 2894 2891 2889 2887 2884 2882 2880 2877 2875 2873 2872 2870 2867 2865 2864 2863 2860 2858 2855 2853 2851 2849 2847 2845 2843 2841 2839 2837 2835 2833 2834 2837 2838 2836 2834 2836 2838 2837 2837 2837 2837 2838 2839 2839 2839 2839 2840 2839
2918 2916 2914 2912 2910 2908 2907 2905 2903 2901 2899 2897 2894 2892 2889 2887 2884 2882 2879 2877 2875 2873 2871 2868 2867 2865 2863 2860 2859 2857 2855 2853 2851 2849 2846 2844 2843 2841 2839 2837 2835 2833 2831 2829 2827 2827 2830 2831 2830 2828 2830 2832 2832 2831 2831 2832 2832 2832 2833 2832 2832 2832 2832
2911 2909 2907 2905 2903 2902 2900 2898 2896 2894 2892 2890 2887 2884 2882 2880 2877 2874 2872 2870 2868 2866 2864 2862 2860 2858 2856 2854 2852 2850 2848 2846 2844 2842 2840 2838 2836 2834 2832 2830 2829 2827 2825 2824 2822 2822 2823 2824 2824 2823 2823 2825 2827 2826 2825 2826 2826 2826 2826 2826 2825 2824 2824
2903 2901 2900 2898 2896 2895 2893 2891 2889 2887 2885 2883 2880 2877 2875 2873 2870 2867 2865 2863 2861 2859 2857 2855 2853 2851 2849 2847 2845 2843 2841 2839 2837 2835 2834 2832 2830 2828 2826 2824 2822 2820 2819 2818 2817 2816 2817 2818 2818 2818 2818 2819 2821 2820 2820 2820 2820 2819 2820 2820 2818 2817 2817
2896 2894 2892 2891 2889 2888 2886 2884 2882 2881 2878 2875 2872 2870 2868 2865 2862 2860 2858 2855 2854 2852 2850 2848 2846 2844 2842 2840 2838 2837 2834 2833 2831 2829 2827 2826 2824 2821 2820 2818 2816 2814 2813 2812 2811 2811 2811 2812 2812 2812 2813 2814 2814 2814 2814 2815 2814 2813 2813 2812 2811 2811 2811
2888 2887 2885 2884 2882 2881 2879 2877 2876 2874 2871 2868 2865 2864 2861 2858 2856 2853 2850 2848 2847 2846 2844 2842 2839 2837 2836 2834 2832 2830 2828 2826 2824 2822 2820 2819 2817 2815 2813 2811 2810 2808 2807 2806 2805 2805 2806 2805 2805 2806 2808 2808 2808 2809 2808 2809 2809 2807 2806 2805 2804 2804 2805
2881 2880 2879 2877 2875 2874 2872 2870 2869 2867 2864 2861 2858 2856 2853 2851 2849 2846 2844 2842 2841 2839 2837 2835 2833 2831 2829 2827 2826 2824 2822 2820 2818 2816 2814 2813 2811 2809 2807 2805 2803 2802 2802 2801 2800 2800 2800 2799 2799 2801 2803 2803 2803 2803 2802 2802 2801 2800 2799 2799 2797 2797 2797
2874 2873 2872 2870 2869 2867 2865 2864 2863 2860 2857 2854 2852 2849 2845 2843 2840 2838 2836 2835 2834 2833 2831 2828 2826 2825 2823 2821 2820 2818 2816 2814 2812 2810 2808 2807 2805 2803 2801 2799 2798 2797 2796 2795 2794 2793 2793 2793 2794 2795 2797 2798 2797 2797 2796 2795 2795 2793 2792 2792 2790 2789 2790
2868 2866 2865 2864 2862 2860 2858 2857 2856 2853 2850 2847 2845 2842 2838 2835 2832 2829 2827 2826 2825 2824 2823 2820 2818 2816 2814 2814 2813 2811 2809 2808 2806 2804 2802 2801 2799 2796 2795 2794 2793 2792 2790 2789 2788 2787 2787 2788 2789 2789 2791 2793 2792 2791 2790 2789 2789 2788 2786 2784 2783 2783 2783
2861 2860 2859 2857 2856 2853 2851 2851 2849 2846 2843 2840 2838 2835 2831 2827 2824 2822 2821 2819 2817 2815 2814 2813 2811 2808 2806 2805 2804 2803 2802 2801 2800 2798 2796 2794 2792 2790 2788 2788 2788 2787 2785 2783 2781 2780 2780 2784 2786 2785 2786 2788 2787 2785 2785 2784 2783 2781 2780 2778 2777 2777 2777
2855 2854 2852 2851 2849 2846 2845 2844 2842 2839 2836 2833 2831 2828 2824 2820 2818 2816 2815 2813 2811 2809 2807 2805 2803 2801 2800 2798 2796 2795 2795 2794 2793 2791 2789 2787 2785 2784 2782 2781 2781 2782 2780 2778 2776 2774 2774 2777 2779 2779 2780 2781 2781 2780 2779 2778 2776 2774 2773 2772 2771 2771 2771
2849 2847 2846 2844 2842 2840 2838 2837 2835 2832 2829 2826 2824 2821 2817 2814 2812 2810 2809 2807 2806 2803 2801 2799 2797 2795 2793 2792 2790 2788 2787 2787 2785 2783 2781 2780 2778 2777 2776 2775 2776 2776 2775 2773 2772 2771 2770 2771 2773 2773 2773 2774 2774 2774 2772 2770 2768 2767 2767 2766 2765 2764 2763
2842 2841 2839 2838 2836 2833 2831 2829 2828 2825 2822 2819 2817 2814 2810 2807 2806 2804 2803 2801 2800 2798 2795 2794 2792 2789 2787 2786 2784 2783 2782 2780 2777 2775 2774 2772 2771 2771 2770 2769 2771 2770 2769 2767 2766 2766 2766 2767 2767 2768 2769 2769 2769 2768 2766 2763 2761 2762 2762 2760 2758 2757 2756
2836 2834 2833 2831 2829 2826 2824 2822 2821 2818 2815 2813 2810 2807 2803 2801 2799 2798 2797 2795 2794 2791 2789 2788 2786 2784 2782 2780 2779 2778 2777 2775 2772 2769 2767 2765 2763 2763 2763 2764 2765 2764 2762 2761 2760 2760 2761 2761 2762 2763 2763 2764 2764 2763 2762 2758 2756 2756 2756 2754 2752 2751 2749
2829 2827 2826 2824 2822 2819 2817 2815 2814 2811 2808 2806 2803 2800 2797 2794 2792 2792 2791 2789 2787 2785 2783 2781 2780 2778 2776 2775 2773 2772 2771 2770 2767 2764 2762 2760 2757 2755 2756 2758 2759 2757 2756 2755 2755 2755 2755 2756 2756 2757 2757 2758 2758 2757 2756 2754 2752 2752 2750 2748 2746 2745 2743
2823 2820 2819 2817 2815 2812 2810 2808 2807 2804 2801 2799 2796 2794 2791 2788 2786 2785 2784 2782 2780 2778 2776 2775 2774 2772 2771 2770 2767 2766 2765 2764 2762 2759 2757 2755 2752 2750 2750 2751 2751 2750 2750 2750 2750 2750 2750 2750 2750 2751 2751 2751 2751 2751 2750 2749 2747 2746 2745 2743 2741 2740 2738
2816 2814 2812 2810 2808 2806 2804 2802 2800 2798 2795 2792 2790 2788 2785 2782 2780 2779 2777 2775 2774 2772 2769 2768 2767 2766 2765 2764 2762 2761 2759 2758 2756 2754 2751 2748 2746 2745 2745 2745 2743 2743 2744 2744 2744 2745 2745 2745 2745 2745 2745 2745 2745 2745 2744 2743 2742 2741 2740 2738 2735 2734 2732
2809 2807 2805 2803 2801 2799 2798 2795 2793 2791 2789 2786 2784 2781 2779 2776 2774 2773 2770 2768 2767 2765 2763 2762 2761 2760 2759 2758 2757 2755 2754 2752 2751 2750 2747 2745 2743 2740 2739 2739 2738 2737 2738 2738 2737 2737 2738 2738 2739 2739 2740 2740 2740 2740 2739 2737 2736 2735 2734 2733 2731 2729 2727
2802 2800 2798 2797 2795 2793 2791 2789 2786 2784 2782 2780 2777 2775 2773 2770 2768 2767 2764 2761 2760 2759 2757 2755 2755 2754 2753 2752 2751 2750 2748 2747 2746 2744 2743 2742 2739 2736 2734 2734 2733 2732 2732 2731 2731 2730 2730 2731 2732 2732 2732 2733 2733 2733 2732 2731 2730 2729 2728 2727 2725 2723 2721
2796 2793 2791 2790 2788 2786 2784 2782 2780 2777 2775 2773 2771 2769 2767 2765 2763 2761 2758 2755 2753 2752 2750 2749 2748 2747 2746 2746 2745 2744 2743 2741 2740 2739 2738 2736 2733 2731 2730 2730 2729 2727 2726 2725 2724 2724 2724 2724 2724 2724 2724 2724 2725 2725 2724 2724 2723 2722 2722 2721 2718 2717 2716
2789 2787 2785 2783 2781 2780 2778 2775 2773 2771 2769 2767 2764 2762 2760 2758 2756 2755 2752 2749 2747 2745 2744 2743 2742 2740 2740 2739 2738 2737 2737 2736 2735 2734 2733 2731 2727 2726 2726 2725 2724 2722 2721 2720 2719 2718 2718 2718 2718 2718 2717 2717 2718 2718 2717 2717 2717 2716 2716 2715 2713 2712 2710
2782 2780 2778 2776 2774 2772 2770 2768 2767 2765 2763 2760 2757 2755 2753 2752 2750 2748 2746 2744 2742 2740 2738 2736 2735 2734 2733 2733 2732 2731 2730 2729 2729 2728 2727 2725 2723 2721 2720 2719 2719 2717 2716 2715 2714 2713 2712 2712 2712 2711 2710 2711 2711 2711 2711 2711 2710 2709 2709 2709 2708 2706 2705
2776 2773 2771 2769 2767 2765 2763 2761 2760 2759 2757 2754 2750 2748 2747 2745 2743 2741 2739 2737 2736 2733 2731 2730 2728 2727 2727 2726 2726 2725 2724 2723 2722 2722 2721 2719 2718 2716 2715 2714 2713 2712 2710 2710 2709 2708 2707 2707 2706 2705 2704 2704 2704 2704 2704 2704 2703 2702 2702 2702 2700 2699 2699
2769 2767 2765 2762 2759 2757 2756 2754 2753 2752 2750 2747 2744 2742 2740 2738 2736 2734 2732 2731 2729 2727 2725 2723 2721 2720 2720 2720 2719 2719 2718 2717 2716 2716 2715 2714 2712 2711 2710 2709 2707 2706 2705 2704 2703 2702 2701 2701 2700 2699 2698 2698 2697 2697 2697 2697 2696 2695 2695 2694 2693 2692 2693
2763 2761 2758 2755 2752 2750 2748 2746 2747 2746 2743 2740 2738 2736 2734 2732 2730 2727 2726 2725 2723 2720 2718 2717 2715 2714 2714 2714 2713 2712 2712 2711 2710 2709 2709 2708 2707 2705 2704 2703 2702 2700 2699 2698 2697 2696 2695 2694 2693 2693 2692 2691 2690 2690 2690 2690 2689 2688 2688 2687 2686 2685 2686
2756 2754 2751 2748 2746 2744 2741 2739 2739 2738 2736 2734 2732 2730 2727 2725 2723 2721 2720 2718 2716 2713 2712 2711 2710 2710 2709 2708 2707 2706 2706 2705 2704 2703 2702 2702 2701 2700 2699 2698 2696 2695 2694 2693 2691 2690 2690 2689 2688 2687 2686 2685 2684 2684 2684 2683 2683 2682 2681 2681 2680 2680 2681
2749 2747 2744 2741 2739 2737 2734 2732 2732 2732 2731 2728 2726 2723 2720 2718 2717 2715 2712 2709 2707 2706 2706 2705 2704 2703 2703 2702 2701 2700 2700 2699 2698 2697 2696 2695 2694 2694 2693 2692 2691 2690 2688 2687 2686 2685 2684 2683 2682 2681 2680 2679 2678 2677 2677 2677 2676 2676 2675 2675 2674 2675 2675
2744 2741 2737 2734 2731 2728 2726 2724 2722 2722 2722 2721 2719 2716 2713 2712 2710 2709 2706 2702 2699 2697 2697 2698 2697 2696 2695 2694 2693 2693 2692 2692 2691 2690 2690 2689 2688 2687 2686 2686 2684 2683 2682 2681 2680 2679 2678 2677 2676 2674 2673 2673 2672 2671 2671 2671 2670 2670 2669 2669 2669 2669 2669
2737 2734 2731 2728 2725 2722 2719 2716 2714 2713 2713 2712 2711 2709 2707 2705 2704 2703 2701 2697 2694 2692 2690 2690 2690 2689 2688 2687 2686 2685 2685 2684 2684 2683 2683 2682 2681 2681 2680 2679 2678 2677 2676 2675 2674 2672 2671 2670 2669 2668 2667 2666 2666 2665 2665 2665 2665 2664 2664 2663 2664 2664 2664
2732 2729 2725 2722 2720 2717 2714 2711 2708 2707 2705 2704 2703 2701 2699 2697 2696 2696 2695 2692 2689 2687 2686 2684 2682 2682 2681 2680 2679 2678 2677 2677 2677 2676 2676 2675 2675 2674 2673 2673 2671 2670 2669 2668 2667 2666 2665 2664 2663 2662 2660 2660 2659 2659 2659 2659 2659 2659 2658 2658 2658 2658 2658
2727 2724 2720 2717 2714 2711 2708 2705 2702 2701 2699 2697 2695 2693 2690 2688 2687 2688 2687 2685 2683 2681 2679 2677 2676 2675 2674 2674 2673 2672 2671 2670 2670 2669 2669 2669 2668 2668 2667 2666 2665 2664 2663 2662 2661 2660 2659 2658 2657 2656 2655 2653 2653 2653 2653 2653 2653 2653 2653 2652 2652 2652 2652
2721 2718 2715 2712 2708 2705 2702 2699 2697 2695 2693 2691 2689 2686 2682 2680 2680 2679 2679 2678 2676 2674 2672 2670 2669 2668 2667 2666 2666 2665 2664 2663 2663 2662 2662 2661 2661 2661 2660 2659 2659 2657 2656 2655 2655 2654 2653 2652 2651 2650 2649 2647 2647 2647 2647 2647 2647 2647 2647 2647 2647 2647 2647
Wind_Speed
58 58 59 59 59 57 56 54 52 52 52 53 52 51 51 51 51 52 52 52 53 53 53 53 52 51 50 50 50 50 50 50 50 50 50 49 49 49 49 49 50 52 51 49 50 49 43 39 40 40 40 40 40 40 41 41 41 42 42 42 43 43 44
59 59 60 59 59 57 55 53 52 52 53 53 52 51 50 50 51 52 52 53 53 53 53 53 53 51 50 49 50 49 49 50 49 49 49 48 48 48 48 48 49 50 51 50 50 47 42 39 40 41 40 39 39 40 40 40 40 41 42 42 42 43 44
59 60 60 59 58 56 54 53 52 52 53 52 51 50 50 51 51 52 52 52 53 53 53 53 52 51 49 49 50 50 49 49 48 48 48 47 47 48 48 47 48 49 50 50 50 47 41 39 41 42 41 39 40 40 40 40 40 40 41 42 42 43 44
59 60 59 58 56 54 53 53 52 52 52 51 50 50 50 51 52 52 52 52 53 53 52 53 52 51 50 49 50 50 49 48 47 47 46 46 46 47 47 46 47 49 49 49 50 47 41 40 42 43 41 40 40 40 40 41 40 40 41 41 42 43 43
59 59 57 55 54 53 52 52 52 52 52 50 49 49 50 51 52 52 53 53 53 52 52 52 51 50 50 50 50 49 48 47 46 45 45 45 45 45 46 46 46 47 48 48 49 47 42 40 42 43 41 39 40 40 40 41 41 41 41 41 42 42 42
58 57 55 54 53 52 51 51 52 52 50 49 49 49 50 51 52 52 53 52 52 52 51 51 51 49 49 49 49 48 47 46 45 44 44 44 44 44 45 45 46 47 47 47 48 48 44 41 42 43 41 39 39 40 40 40 40 40 41 41 41 41 42
56 54 53 53 52 51 50 51 51 50 49 48 48 49 50 51 52 52 53 52 52 52 51 51 50 49 49 49 48 47 45 45 44 44 43 43 43 43 44 45 45 46 46 46 47 47 45 43 42 42 42 39 38 39 40 40 40 40 40 40 41 42 44
53 53 52 51 50 50 50 51 50 48 47 47 48 49 50 51 52 52 52 52 52 52 51 50 49 49 48 48 47 46 45 44 43 43 43 42 42 43 43 44 45 46 46 46 46 46 45 43 42 42 41 39 38 39 39 39 40 40 39 39 41 43 45
52 51 50 49 49 49 50 49 48 46 46 47 49 49 50 51 52 52 52 52 52 51 50 49 49 49 48 47 46 45 44 43 42 42 43 42 42 43 43 44 45 46 45 46 46 46 44 43 43 41 40 39 38 39 39 38 38 39 39 40 42 43 44
49 48 47 48 48 49 48 47 46 45 46 48 49 49 50 50 51 52 52 52 51 50 49 48 48 48 46 46 45 43 42 42 41 42 42 42 42 43 43 44 45 45 45 45 45 45 44 43 43 41 39 38 38 38 38 37 37 38 39 41 43 43 42
46 46 46 47 48 47 46 45 45 45 46 48 48 49 50 51 51 51 52 51 50 48 48 47 47 46 45 44 44 42 41 40 40 41 41 41 41 42 43 44 45 45 45 44 44 44 43 43 43 40 38 37 37 37 37 37 37 39 40 41 43 44 43
44 45 46 46 46 45 45 45 44 45 47 48 48 48 50 51 52 52 52 51 49 47 46 46 46 45 44 43 42 41 40 39 39 40 40 40 41 43 43 44 44 44 44 44 44 44 43 43 42 39 36 35 36 36 37 38 38 39 41 42 44 45 45
44 45 45 45 45 45 45 45 44 45 46 47 47 47 49 50 51 52 52 51 49 47 46 46 45 45 45 43 42 40 40 39 38 38 39 40 41 43 43 42 41 41 42 43 43 44 44 42 40 39 36 34 35 36 37 38 39 40 42 43 45 45 45
44 44 44 44 44 45 45 44 44 45 46 47 47 47 47 49 50 50 50 49 48 47 46 45 44 45 45 44 43 41 39 38 38 38 39 41 42 43 43 41 40 39 40 41 43 44 44 40 38 38 36 34 34 36 37 38 39 41 42 44 45 45 45
43 43 43 43 44 45 45 44 44 45 46 46 46 45 46 48 49 49 48 47 46 46 45 45 44 44 44 43 43 42 40 38 38 39 40 41 42 42 41 40 38 37 37 39 41 43 43 39 37 37 36 34 34 35 36 38 40 42 43 44 45 45 45
42 42 43 43 43 44 45 44 43 44 45 45 45 45 46 47 48 47 46 45 45 44 44 44 44 44 43 42 42 42 40 39 39 40 40 41 41 40 40 39 36 35 36 38 39 40 40 39 37 36 36 35 34 35 37 39 42 42 43 44 45 45 45
42 42 42 42 43 44 45 44 43 43 44 44 44 45 46 47 47 46 45 44 43 43 43 43 43 43 42 41 40 40 39 39 40 41 41 41 41 39 38 37 34 34 36 37 38 38 38 38 37 36 35 35 35 36 38 41 43 42 42 43 45 46 46
41 42 42 42 42 43 44 44 42 42 43 43 43 44 46 46 46 45 44 43 43 43 43 42 42 41 41 40 39 38 38 38 38 40 41 42 42 40 38 35 33 34 35 37 38 38 38 37 37 36 36 35 35 36 37 41 43 42 42 44 46 46 48
41 41 41 42 42 43 44 43 41 41 42 42 43 44 45 46 45 44 43 42 42 42 42 42 41 40 39 38 37 37 36 36 36 38 39 40 41 41 39 35 33 34 35 36 37 38 38 38 37 36 36 35 35 35 36 38 40 41 42 45 46 47 48
40 41 41 42 42 43 43 42 41 40 41 42 42 43 44 45 44 43 42 42 42 42 42 41 40 39 37 36 36 37 36 35 35 37 37 38 39 40 39 36 35 35 36 37 37 37 37 37 37 36 35 35 34 35 36 37 39 40 41 44 46 47 49
40 41 42 42 42 42 41 41 41 40 40 41 42 43 43 44 43 42 42 42 42 42 42 41 40 39 37 34 34 35 34 35 34 34 35 37 38 38 35 34 36 37 36 36 36 35 35 35 35 35 34 34 35 35 36 37 39 40 42 44 46 48 50
40 41 42 41 41 41 40 40 40 40 40 41 42 43 43 42 42 41 42 43 42 42 42 41 39 38 36 34 33 33 33 34 34 32 33 34 34 34 34 34 36 37 36 35 35 34 34 34 34 35 35 35 35 35 36 37 39 40 41 43 45 47 49
41 42 42 42 41 41 40 39 39 40 40 41 42 42 42 41 41 41 42 43 43 42 42 41 39 37 35 33 33 32 33 33 33 32 32 31 32 34 35 34 35 36 36 36 36 36 36 36 36 36 36 36 35 35 36 36 37 38 39 41 43 45 46
41 42 42 42 41 40 39 38 39 40 41 41 42 42 41 40 40 40 41 43 43 42 42 41 39 37 35 33 33 32 32 33 33 32 31 30 33 35 34 32 33 35 36 37 37 37 38 38 38 37 37 37 37 36 37 37 37 37 38 39 42 44 45
41 42 42 41 40 39 39 39 39 39 40 41 41 42 41 40 39 39 41 42 42 42 42 41 39 37 36 34 33 33 32 32 32 31 30 30 33 35 34 33 33 35 36 37 38 39 40 40 40 40 40 40 39 39 39 38 38 38 38 39 41 43 45
41 42 41 41 40 39 39 39 39 39 39 40 41 42 41 40 40 40 41 41 42 42 41 40 39 38 36 35 33 33 33 32 31 31 30 31 32 34 34 34 35 35 37 38 38 39 40 41 41 42 42 42 41 41 41 40 40 40 40 39 40 42 43
41 41 41 41 40 40 40 40 39 38 38 39 41 41 40 40 40 41 41 41 41 41 41 40 40 38 36 34 33 33 33 33 32 31 31 32 33 34 34 35 36 37 38 38 39 40 40 41 42 43 43 43 43 43 42 41 41 42 41 40 41 42 41
41 40 40 41 41 41 41 41 39 38 38 39 40 41 40 40 41 42 42 41 41 41 40 40 40 39 37 34 33 33 33 33 33 32 31 32 33 34 35 36 37 37 38 39 40 41 41 41 42 43 43 43 43 43 42 42 42 42 41 41 42 42 40
41 40 40 41 42 42 42 42 40 38 38 39 40 40 40 41 41 42 42 41 40 39 39 39 40 39 37 35 34 34 34 34 33 32 32 33 34 34 35 36 36 37 38 39 40 41 42 42 43 43 43 44 44 44 43 42 42 42 42 42 43 43 40
40 40 40 42 42 42 43 44 42 39 38 39 39 40 41 41 41 41 41 40 39 38 38 38 38 37 35 34 34 34 34 34 33 33 34 34 34 35 35 35 36 37 37 38 39 40 41 42 42 43 44 44 44 44 43 42 42 42 42 43 43 42 40
40 40 41 43 43 43 43 44 42 39 38 38 39 40 41 41 40 40 40 40 41 40 38 37 37 36 34 33 33 34 33 34 34 35 35 35 35 35 36 36 36 37 37 38 39 39 39 40 41 42 43 43 43 43 43 42 42 42 42 43 43 42 39
39 40 41 43 44 44 45 45 45 42 39 39 40 40 41 40 39 38 38 40 42 42 40 38 37 36 35 35 34 34 34 35 35 35 35 36 36 36 37 37 37 38 38 39 39 39 39 39 40 41 41 41 41 41 41 41 41 41 42 42 41 40 38
39 40 41 42 43 44 44 45 46 45 43 41 40 40 40 39 37 36 37 39 41 42 42 41 39 38 37 37 37 36 36 36 36 36 36 36 37 37 37 38 38 39 39 39 39 39 40 39 39 40 40 40 40 40 39 39 39 39 40 40 39 37 36
38 39 40 41 42 43 44 45 45 45 44 42 41 40 39 39 38 37 37 38 40 41 41 41 41 40 39 39 38 38 38 38 37 37 37 38 37 38 38 38 39 39 39 40 40 40 40 40 39 40 40 40 39 38 37 37 37 37 38 38 37 36 34
37 37 38 40 40 41 43 44 44 43 42 42 41 40 40 40 40 38 37 37 39 40 40 41 41 41 39 39 38 38 38 39 38 38 38 38 38 38 38 39 39 39 40 40 40 40 39 39 40 39 39 39 39 38 36 35 35 36 36 36 36 34 33
38 37 38 38 39 40 41 42 42 42 41 40 40 40 41 42 41 39 38 37 37 38 39 39 40 39 39 38 38 37 38 38 38 38 38 38 39 39 39 39 39 39 40 40 40 39 39 39 39 39 39 39 38 37 35 35 34 35 35 35 34 34 33
Wind_Direction
283 285 287 287 287 287 288 288 287 288 288 289 290 291 292 292 292 293 293 293 294 294 294 294 294 294 294 294 294 294 293 292 292 290 290 289 288 287 286 286 285 284 283 280 277 277 277 273 269 265 263 261 260 259 259 259 259 259 259 260 260 260 260
281 284 285 286 286 286 287 287 287 287 288 289 290 291 292 292 292 293 293 293 294 294 294 294 294 294 295 294 293 293 292 291 291 290 289 288 287 286 285 285 284 283 282 279 277 277 276 273 269 267 265 264 262 261 261 260 260 261 260 261 261 261 261
280 283 284 284 285 286 286 285 286 287 288 289 291 291 292 292 292 292 293 293 293 293 293 293 294 294 294 294 293 292 292 291 290 289 288 287 286 285 285 284 283 282 281 279 277 276 274 271 269 268 266 265 264 264 264 263 263 263 263 263 264 264 264
280 282 283 283 284 284 284 284 286 287 288 290 291 291 291 291 292 292 292 292 292 293 293 293 294 294 294 293 292 292 291 290 289 288 287 286 285 285 284 283 282 281 280 279 277 275 274 271 269 268 268 267 267 267 267 267 266 266 266 266 267 267 267
281 282 283 283 283 283 283 285 286 287 289 290 291 291 291 291 291 291 292 292 292 292 293 293 293 294 294 292 292 291 291 290 289 288 287 286 285 284 284 282 281 280 279 278 277 276 273 270 269 269 269 269 269 269 269 269 270 269 269 269 269 269 269
282 282 282 282 281 282 283 285 286 288 289 290 291 290 290 290 291 291 291 292 292 292 292 292 293 293 293 292 291 291 290 289 288 287 286 285 285 284 283 281 280 279 278 277 276 275 273 270 269 270 270 269 270 271 270 271 271 271 271 271 271 270 269
281 281 280 280 281 282 284 285 287 288 290 290 290 289 289 290 291 291 291 292 292 292 292 292 293 293 292 291 291 291 290 289 288 286 285 285 284 283 282 280 279 277 276 275 274 274 273 271 270 270 271 271 271 271 272 272 272 272 272 272 272 271 270
279 279 279 280 281 282 284 286 287 289 290 290 289 288 289 290 290 291 291 291 292 292 292 293 293 292 291 291 291 290 289 288 287 286 284 283 283 281 280 279 277 276 275 274 273 272 272 271 270 270 272 273 272 272 272 272 273 273 273 273 272 271 271
278 278 279 279 281 283 285 287 288 289 289 288 288 288 289 290 290 290 291 291 291 292 292 293 292 291 291 291 290 290 289 287 286 284 283 283 282 281 279 277 276 275 274 273 272 272 271 271 270 270 271 272 272 272 272 272 272 273 274 273 271 271 272
278 278 278 280 281 284 286 288 289 289 288 287 288 289 289 289 289 290 290 290 291 292 292 292 291 291 291 290 290 289 287 286 284 283 282 282 282 281 280 278 276 275 274 272 272 271 271 270 270 270 271 271 271 272 272 273 272 272 272 272 272 273 273
277 277 278 281 284 286 288 288 288 288 287 287 288 289 288 288 288 289 289 290 291 291 291 291 290 290 290 289 288 287 285 284 283 282 282 282 281 280 278 277 275 275 274 273 272 271 270 269 269 269 270 271 272 273 274 274 274 274 274 275 275 275 275
277 278 281 284 286 287 287 287 287 287 287 288 288 288 288 289 289 290 290 290 291 291 291 290 290 289 288 288 287 286 284 282 281 281 281 280 279 278 276 275 275 274 273 272 271 270 269 269 269 270 270 272 274 274 274 275 275 276 276 276 276 276 276
278 281 284 286 287 287 287 287 287 287 287 287 287 288 288 289 290 291 292 293 294 294 293 292 292 291 290 289 287 285 284 282 282 280 280 279 278 277 276 274 273 273 272 271 269 268 267 268 270 271 271 271 272 272 272 273 274 275 275 275 275 276 277
281 284 286 287 286 286 286 287 287 287 287 287 287 288 289 289 290 291 293 294 295 295 295 294 293 292 291 290 288 286 284 284 283 281 280 280 279 278 277 275 272 270 269 269 269 268 267 265 266 267 268 268 268 269 271 272 273 273 273 273 274 275 277
284 285 286 285 285 286 287 288 287 287 287 287 288 289 288 288 289 291 292 293 294 294 294 294 293 292 291 290 289 288 287 286 285 283 282 281 280 279 278 276 273 270 267 265 266 268 270 270 269 268 269 269 269 271 273 273 273 273 274 274 275 276 278
284 285 285 285 286 286 287 288 287 287 287 288 288 288 288 288 289 290 291 292 293 293 292 292 292 291 290 289 288 288 289 288 286 284 283 283 282 281 278 275 273 270 267 264 263 264 267 270 271 271 273 274 275 275 275 274 273 274 276 278 278 279 280
284 285 285 286 287 287 287 288 288 288 288 288 288 288 287 288 289 290 291 292 291 291 290 290 290 290 289 287 287 287 287 287 286 286 285 284 282 280 277 274 272 269 266 264 264 263 264 265 267 268 270 271 271 272 272 273 274 276 278 279 279 280 281
285 286 286 287 287 287 288 288 288 288 288 288 288 287 287 288 289 290 291 291 290 289 289 288 288 288 287 285 284 284 283 283 284 285 285 285 284 281 277 274 270 267 265 264 263 263 263 264 265 265 265 266 267 268 269 271 274 277 278 278 279 281 282
286 287 287 287 287 288 289 289 289 288 287 287 287 287 288 288 289 290 291 290 289 288 288 288 289 288 287 285 284 282 282 282 281 281 282 284 284 283 280 276 271 266 264 263 262 263 264 264 265 265 265 266 267 268 267 269 272 274 275 276 278 279 280
287 287 287 288 288 289 289 289 289 288 287 287 287 287 287 288 289 290 290 289 288 288 288 289 289 288 286 284 283 283 283 282 280 281 283 283 282 282 282 279 273 266 263 261 261 261 262 264 264 265 266 267 267 267 267 268 269 270 271 272 274 275 276
287 288 288 289 289 289 289 289 289 288 287 287 287 287 287 288 289 290 289 288 288 288 289 290 290 289 286 283 280 281 281 279 279 281 282 284 285 286 284 280 275 271 268 266 265 264 262 262 263 263 263 263 264 265 266 267 267 268 269 270 272 273 275
288 289 289 289 289 289 290 290 289 287 286 286 287 287 287 288 289 289 288 288 288 289 289 290 289 288 286 283 281 279 278 277 277 277 279 282 284 282 279 277 277 278 277 275 273 270 266 263 261 260 258 258 259 260 262 263 264 265 266 267 269 270 272
289 289 289 290 290 290 290 290 288 287 286 286 287 287 287 288 288 288 288 288 289 289 289 290 289 288 285 281 278 276 275 274 274 275 277 278 276 275 277 279 279 278 278 276 274 272 270 267 266 264 263 262 262 262 262 263 264 266 267 268 269 270 272
290 290 290 290 290 291 290 289 287 286 287 288 288 287 287 287 287 287 287 288 289 289 289 290 289 287 283 279 276 274 272 271 271 274 276 276 275 276 279 280 277 276 275 275 274 273 273 272 272 272 271 271 270 270 269 269 270 271 271 272 273 274 274
290 290 291 291 291 292 290 288 287 287 288 288 288 287 287 286 286 286 286 287 288 289 289 289 288 285 282 279 277 275 273 272 272 274 276 275 275 277 278 276 275 275 274 274 274 275 274 275 275 275 274 274 273 273 273 273 273 273 272 272 273 273 273
291 292 292 292 292 291 289 288 288 289 289 288 287 287 287 286 286 286 285 286 287 288 288 287 285 283 281 279 277 276 275 274 273 273 273 272 273 275 276 275 274 273 273 274 275 275 275 275 275 275 274 274 274 273 273 274 274 273 273 272 272 271 271
292 293 294 294 292 291 290 290 290 289 289 288 287 287 287 287 287 286 286 287 288 287 287 286 284 282 280 278 277 275 274 274 273 272 272 271 271 272 273 273 274 274 274 275 275 275 276 275 275 275 275 275 275 274 274 274 273 273 273 273 274 273 272
293 294 295 294 292 292 291 291 290 290 289 287 287 288 288 288 287 287 287 288 287 286 285 283 282 282 281 279 276 274 272 271 271 270 270 270 271 272 273 273 274 275 275 276 276 276 276 276 276 277 277 277 276 275 274 274 273 273 274 276 276 277 277
295 296 295 293 293 293 292 291 291 290 289 288 288 288 287 287 286 286 286 286 284 282 280 279 279 280 281 279 275 271 269 269 269 269 268 269 269 271 272 273 274 275 276 276 276 276 277 277 277 278 278 278 278 277 276 275 274 274 275 276 277 279 280
297 297 295 294 293 293 292 292 292 291 290 289 289 287 286 285 285 285 286 284 281 278 277 277 277 278 277 274 271 269 268 267 267 267 267 267 268 269 271 272 274 275 276 276 276 276 277 277 277 276 276 276 276 276 276 275 274 273 273 274 275 277 278
298 297 295 294 293 292 291 291 290 290 289 289 288 287 287 287 287 288 288 286 283 282 280 280 279 279 277 274 272 270 268 266 266 266 267 268 269 270 271 273 274 275 276 276 277 278 279 278 278 276 275 275 275 275 274 274 273 271 270 271 272 274 275
298 297 296 295 295 295 294 294 294 293 292 291 289 289 288 288 288 287 285 284 283 284 284 284 284 283 282 279 276 273 270 268 268 268 269 270 271 272 273 274 275 276 276 277 279 280 280 280 279 278 277 275 274 274 273 271 270 268 267 268 270 272 274
299 297 296 295 295 295 295 294 294 295 294 293 291 290 288 287 285 282 280 279 280 282 284 286 285 283 281 280 278 276 274 272 270 270 270 271 272 273 274 274 275 276 277 278 279 280 280 281 281 281 279 277 275 273 271 269 267 266 266 267 269 271 273
297 296 295 295 294 293 293 292 292 292 293 293 292 290 288 285 282 280 279 278 279 280 281 281 281 280 279 278 278 277 275 273 272 271 271 271 272 272 273 273 274 275 276 277 278 279 280 282 282 282 280 278 275 273 271 268 266 265 265 267 269 271 272
297 296 294 294 293 292 291 290 291 292 292 292 292 290 287 285 284 283 282 280 279 279 278 278 278 278 278 277 275 274 273 273 272 271 270 271 271 271 272 272 273 273 274 276 277 278 280 280 281 281 280 277 274 272 270 268 266 265 265 267 269 270 271
300 298 296 295 294 292 291 291 291 292 292 292 291 289 287 286 286 285 283 281 279 279 278 278 278 278 277 276 275 274 273 272 272 271 271 271 271 271 271 271 272 273 274 275 276 277 278 279 279 279 278 275 272 270 268 266 265 265 266 267 269 270 269